• Join FlightAware (Why Join?)
  • Login
  • US Flag 
08:47AM EST


 

Airport Tracker/Info


-or-


 

Live Flight TrackerFlight Track Log ✈ TAM3441 ✈ 13-Jun-2013 ✈ SBCF / CNF - SBGR / GRU

Flight Track Log - Related Links

Times and Time Zones

All times are in EDT time to prevent confusion due to time zone crossing. See the TAM3441 flight status page for this flight to view local times or setup timezone preferences in your user account.

Time Position Orientation Groundspeed Altitude Reporting Facility
EDT Latitude Longitude Course Direction KTS MPH feet Rate Location/Type
04:51AM -19.6310 -42.0170 89° East  Level FlightAware
04:51AM -19.6290 -42.3350 270° West 1,831 Level FlightAware
04:54AM -19.7300 -42.4408 225° Southwest  Level Estimated
04:55AM -19.7729 -42.4858 225° Southwest  Level Estimated
04:56AM -19.8159 -42.5309 225° Southwest  Level Estimated
04:57AM -19.8588 -42.5760 225° Southwest  Level Estimated
04:58AM -19.9017 -42.6211 225° Southwest  Level Estimated
04:59AM -19.9446 -42.6662 225° Southwest  Level Estimated
05:00AM -19.9875 -42.7114 225° Southwest  Level Estimated
05:01AM -20.0304 -42.7566 225° Southwest  Level Estimated
05:01AM -19.7100 -44.2130 225° Southwest 374 430 18,800  Level FlightAware
05:02AM -19.7720 -44.2800 225° Southwest 384 442 20,500 2,259 Climbing FlightAware
05:02AM -19.8210 -44.3330 225° Southwest 384 442 22,000 2,143 Climbing FlightAware
05:03AM -19.8760 -44.3930 226° Southwest 390 449 23,500 2,000 Climbing FlightAware
05:04AM -19.9280 -44.4500 226° Southwest 391 450 24,800 1,857 Climbing FlightAware
05:05AM -19.9830 -44.5090 225° Southwest 395 455 26,100 1,837 Climbing FlightAware
05:05AM -19.9910 -44.5180 227° Southwest 396 456 26,300 2,073 Climbing FlightAware
05:05AM -20.0530 -44.5860 226° Southwest 393 452 28,000 2,267 Climbing FlightAware
05:06AM -20.1040 -44.6410 225° Southwest 380 437 29,700 1,412 Climbing FlightAware
05:07AM -20.1580 -44.7000 226° Southwest 374 430 30,000 212 Climbing FlightAware
05:08AM -20.2050 -44.7520 226° Southwest 384 442 30,000  Level FlightAware
05:08AM -20.2620 -44.8140 226° Southwest 385 443 30,000  Level FlightAware
05:09AM -20.3110 -44.8680 226° Southwest 377 434 30,000  Level FlightAware
05:10AM -20.3610 -44.9230 226° Southwest 375 432 30,000  Level FlightAware
05:10AM -20.4130 -44.9790 225° Southwest 374 430 30,000 -75 Level FlightAware
05:11AM -20.4580 -45.0290 226° Southwest 374 430 29,900  Descending FlightAware
05:12AM -20.5110 -45.0870 226° Southwest 375 432 30,000 70 Climbing FlightAware
05:12AM -20.5540 -45.1340 226° Southwest 375 432 30,000  Level FlightAware
05:13AM -20.6090 -45.1950 226° Southwest 376 433 30,000  Level FlightAware
05:14AM -20.6850 -45.2790 226° Southwest 376 433 30,000  Level FlightAware
05:15AM -20.7250 -45.3230 226° Southwest 377 434 30,000  Level FlightAware
05:16AM -20.7860 -45.3910 226° Southwest 377 434 30,000  Level FlightAware
05:16AM -20.8270 -45.4370 226° Southwest 377 434 30,000  Level FlightAware
05:17AM -20.8790 -45.4940 226° Southwest 377 434 30,000  Level FlightAware
05:18AM -20.9250 -45.5450 226° Southwest 375 432 30,000  Level FlightAware
05:18AM -20.9940 -45.6210 226° Southwest 375 432 30,000  Level FlightAware
05:19AM -21.0430 -45.6760 226° Southwest 375 432 30,000  Level FlightAware
05:20AM -21.1030 -45.7430 226° Southwest 375 432 30,000  Level FlightAware
05:21AM -21.1400 -45.7840 226° Southwest 375 432 30,000  Level FlightAware
05:21AM -21.1890 -45.8380 226° Southwest 375 432 30,000  Level FlightAware
05:22AM -21.2840 -45.9450 226° Southwest 373 429 30,000  Level FlightAware
05:23AM -21.3420 -46.0100 226° Southwest 374 430 30,000  Level FlightAware
05:24AM -21.3960 -46.0700 226° Southwest 374 430 30,000  Level FlightAware
05:25AM -21.4450 -46.1260 227° Southwest 372 428 30,000  Level FlightAware
05:25AM -21.4850 -46.1700 226° Southwest 373 429 30,000  Level FlightAware
05:26AM -21.5420 -46.2340 226° Southwest 373 429 30,000  Level FlightAware
05:27AM -21.5910 -46.2890 226° Southwest 374 430 30,000  Level FlightAware
05:28AM -21.6610 -46.3680 226° Southwest 374 430 30,000  Level FlightAware
05:28AM -21.7090 -46.4220 226° Southwest 374 430 30,000  Level FlightAware
05:29AM -21.7550 -46.4730 226° Southwest 377 434 30,000  Level FlightAware
05:30AM -21.8030 -46.5110 216° Southwest 382 440 30,000  Level FlightAware
05:30AM -21.8870 -46.5730 214° Southwest 380 437 30,000  Level FlightAware
05:31AM -21.9450 -46.6170 215° Southwest 380 437 30,000  Level FlightAware
05:32AM -22.0040 -46.6620 215° Southwest 379 436 30,000  Level FlightAware
05:32AM -22.0510 -46.6980 215° Southwest 379 436 30,000  Level FlightAware
05:33AM -22.0940 -46.7300 215° Southwest 379 436 30,000  Level FlightAware
05:34AM -22.1540 -46.7750 215° Southwest 378 435 30,000 -357 Level FlightAware
05:34AM -22.2160 -46.8230 216° Southwest 380 437 29,500 -1,643 Descending FlightAware
05:35AM -22.2880 -46.8770 215° Southwest 418 481 27,700 -2,621 Descending FlightAware
05:36AM -22.3640 -46.9350 215° Southwest 426 490 25,700 -2,442 Descending FlightAware
05:37AM -22.4290 -46.9850 215° Southwest 420 483 24,200 -2,025 Descending FlightAware
05:37AM -22.4880 -47.0290 215° Southwest 363 418 23,000 -1,590 Descending FlightAware
05:38AM -22.5410 -47.0690 215° Southwest 314 361 22,000 -1,750 Descending FlightAware
05:38AM -22.5800 -47.0880 204° Southwest 316 364 20,900 -2,093 Descending FlightAware
05:39AM -22.6600 -47.0630 164° South 326 375 19,000 -1,926 Descending FlightAware
05:40AM -22.6960 -47.0480 159° South 323 372 18,300 -1,275 Descending FlightAware
05:41AM -22.7710 -47.0160 159° South 299 344 17,300 -1,250 Descending FlightAware
05:41AM -22.8240 -46.9940 159° South 298 343 16,300 -1,024 Descending FlightAware
05:42AM -22.8740 -46.9720 158° South 269 310 15,900 -1,098 Descending FlightAware
05:43AM -22.9210 -46.9530 160° South 265 305 14,800 -1,744 Descending FlightAware
05:43AM -22.9740 -46.9310 159° South 265 305 13,400 -1,694 Descending FlightAware
05:44AM -23.0180 -46.9120 158° South 255 293 12,400 -1,650 Descending FlightAware
05:45AM -23.0620 -46.8940 159° South 252 290 11,200 -1,884 Descending FlightAware
05:46AM -23.1120 -46.8730 159° South 264 304 9,700 -1,644 Descending FlightAware
05:46AM -23.1440 -46.8600 160° South 259 298 9,200 -964 Descending FlightAware
05:47AM -23.1750 -46.8470 159° South 246 283 8,800 -857 Descending FlightAware
05:47AM -23.2040 -46.8340 158° South 236 272 8,400 -818 Descending FlightAware
05:47AM -23.2200 -46.8270 158° South 232 267 8,200 -955 Descending FlightAware
05:48AM -23.2480 -46.8150 159° South 228 262 7,700 -1,038 Descending FlightAware
05:48AM -23.2710 -46.8050 158° South 222 255 7,300 -778 Descending FlightAware
05:49AM -23.2990 -46.7940 160° South 208 239 7,000 -310 Descending FlightAware
05:49AM -23.3240 -46.7830 158° South 204 235 7,000 -321 Level FlightAware
05:50AM -23.3480 -46.7730 159° South 202 232 6,700 -679 Descending FlightAware
05:50AM -23.3690 -46.7640 159° South 202 232 6,400 -667 Descending FlightAware
05:50AM -23.3920 -46.7450 143° Southeast 208 239 6,100 -700 Descending FlightAware
05:51AM -23.4140 -46.7230 137° Southeast 207 238 5,700 -857 Descending FlightAware
05:51AM -23.4220 -46.7160 141° Southeast 206 237 5,500 -923 Descending FlightAware
05:52AM -23.4430 -46.6960 139° Southeast 203 234 5,100 -682 Descending FlightAware
05:52AM -23.4520 -46.6830 127° Southeast 202 232 5,000 -409 Descending FlightAware
05:52AM -23.4620 -46.6580 114° Southeast 202 232 4,800 -321 Descending FlightAware
05:53AM -23.4730 -46.6310 114° Southeast 198 228 4,700 -308 Descending FlightAware
05:53AM -23.4750 -46.6220 104° East 188 216 4,600 -632 Descending FlightAware
05:53AM -23.4700 -46.6020 75° East 172 198 4,300 -724 Descending FlightAware
05:54AM -23.4630 -46.5780 72° East 149 171 3,900 -778 Descending FlightAware
05:54AM -23.4590 -46.5620 75° East 138 159 3,600 -778 Descending FlightAware
05:55AM -23.4540 -46.5420 75° East 135 155 3,200 -360 Descending FlightAware
05:56AM -23.4510 -46.5310 73° East 132 152 3,000 -436 Descending FlightAware
05:57AM -23.4370 -46.4790 74° East 136 157 2,400 -878 Descending FlightAware
05:59AM -23.4321 -46.4695 61° Northeast  Level Estimated
06:00AM -23.4321 -46.4695 350° North  Level Estimated
06:01AM -23.4321 -46.4695 350° North  Level Estimated
06:02AM -23.4321 -46.4695 350° North  Level Estimated
06:03AM -23.4321 -46.4695 350° North  Level Estimated
06:04AM -23.4321 -46.4695 350° North  Level Estimated
06:05AM -23.4321 -46.4695 350° North  Level Estimated
06:06AM -23.4321 -46.4695 350° North  Level Estimated
06:07AM -23.4321 -46.4695 350° North  Level Estimated
06:08AM -23.4321 -46.4695 350° North  Level Estimated
06:09AM -23.4321 -46.4695 350° North  Level Estimated
06:10AM -23.4321 -46.4695 350° North  Level Estimated
06:11AM -23.4321 -46.4695 350° North  Level Estimated
06:12AM -23.4321 -46.4695 350° North  Level Estimated
06:13AM -23.4321 -46.4695 350° North  Level Estimated
06:14AM -23.4321 -46.4695 350° North  Level Estimated
06:15AM -23.4321 -46.4695 350° North  Level Estimated
06:16AM -23.4321 -46.4695 350° North  Level Estimated
06:17AM -23.4321 -46.4695 350° North  Level Estimated
06:18AM -23.4321 -46.4695 350° North  Level Estimated
06:19AM -23.4321 -46.4695 350° North  Level Estimated
06:20AM -23.4321 -46.4695 350° North  Level Estimated
06:21AM -23.4321 -46.4695 350° North  Level Estimated